"August 1 to September 25, 1994",,,,,,,,,,,,,,,
NOAA Ship Malcolm Baldrige,,,,,,,,,,,,,,,
Group,JD_GMT,Date,Time,Latitude,Longitude,xCO2w_ppm,xCO2a_ppm,Pres_Equil_mB,Pres_sealevel_mB,EqTemp_C,SST(TSG)_C,Sal(TSG)_permil,fCO2w@SST_uatm,fCO2a_uatm,dfCO2_uatm
AOML,213.011,1081994,0:15:50,11.81,-74.59,395.36,358.41,1010.48,1010.48,27.09,26.92,36.29,377.21,344.15,33.06
AOML,213.014,1081994,0:20:10,11.79,-74.61,395.2,358.41,1010.44,1010.44,27.09,26.94,36.3,377.21,344.15,33.06
AOML,213.018,1081994,0:25:55,11.78,-74.62,395.42,358.41,1010.62,1010.62,27.1,26.96,36.32,377.56,344.15,33.41
AOML,213.021,1081994,0:30:14,11.79,-74.63,395.52,358.41,1010.45,1010.45,27.12,26.99,36.34,377.79,344.15,33.64
AOML,213.032,1081994,0:46:05,11.76,-74.69,395.75,358.41,1010.88,1010.88,27.22,27.12,36.43,378.47,344.15,34.32
AOML,213.035,1081994,0:50:24,11.76,-74.7,395.85,358.41,1010.91,1010.91,27.24,27.08,36.43,377.77,344.15,33.62
AOML,213.038,1081994,0:54:43,11.75,-74.72,395.95,358.41,1011.06,1011.06,27.21,27.06,36.4,378.16,344.15,34.01
AOML,213.042,1081994,1:00:29,11.74,-74.74,395.88,358.41,1011.2,1011.2,27.21,27.06,36.34,378.12,344.15,33.97
AOML,213.053,1081994,1:16:19,11.72,-74.79,393.84,357.34,1011.31,1011.31,27.07,26.92,36.17,376.23,343.54,32.7
AOML,213.056,1081994,1:20:38,11.71,-74.8,393.58,357.34,1011.35,1011.35,27.07,26.91,36.15,375.89,343.54,32.35
AOML,213.059,1081994,1:24:58,11.7,-74.83,393.87,357.34,1011.4,1011.4,27.03,26.87,36.14,376.16,343.54,32.62
AOML,213.062,1081994,1:29:17,11.7,-74.84,394.46,357.34,1011.47,1011.47,27,26.84,36.12,376.88,343.54,33.34
AOML,213.074,1081994,1:46:34,11.68,-74.89,393.94,357.34,1011.68,1011.68,26.97,26.81,36.1,376.42,343.54,32.88
AOML,213.077,1081994,1:50:53,11.67,-74.9,393.55,357.34,1011.76,1011.76,26.94,26.78,36.07,376.06,343.54,32.53
AOML,213.08,1081994,1:55:12,11.67,-74.93,393.35,357.34,1011.77,1011.77,26.9,26.72,36.04,375.73,343.54,32.19
AOML,213.083,1081994,1:59:31,11.66,-74.94,393.16,357.34,1011.82,1011.82,26.86,26.7,36,375.81,343.54,32.27
AOML,213.095,1081994,2:16:48,11.64,-74.99,393.7,357.23,1011.9,1011.9,26.92,26.81,35.99,376.93,343.45,33.48
AOML,213.098,1081994,2:21:07,11.64,-75,393.31,357.23,1011.93,1011.93,26.94,26.81,35.96,376.34,343.45,32.89
AOML,213.101,1081994,2:25:26,11.64,-75.02,392.52,357.23,1011.93,1011.93,26.97,26.88,35.93,376.08,343.45,32.62
AOML,213.104,1081994,2:29:46,11.63,-75.04,391.61,357.23,1011.99,1011.99,27.04,26.95,35.93,375.21,343.45,31.75
AOML,213.115,1081994,2:45:36,11.6,-75.09,390.41,357.23,1012.11,1012.11,27.09,26.96,35.78,373.58,343.45,30.13
AOML,213.119,1081994,2:51:22,11.6,-75.1,390.15,357.23,1012.13,1012.13,27.1,26.97,35.75,373.19,343.45,29.74
AOML,213.122,1081994,2:55:41,11.59,-75.12,389.89,357.23,1012.01,1012.01,27.1,26.96,35.74,372.87,343.45,29.41
AOML,213.125,1081994,3:00:00,11.59,-75.14,389.66,357.23,1012.12,1012.12,27.09,26.95,35.75,372.67,343.45,29.21
AOML,213.136,1081994,3:15:50,11.58,-75.19,388.87,357.28,1012.25,1012.25,27.01,26.84,35.7,371.62,343.16,28.46
AOML,213.139,1081994,3:20:10,11.57,-75.2,388.22,357.28,1012.15,1012.15,26.97,26.87,35.54,371.95,343.16,28.79
AOML,213.143,1081994,3:25:55,11.56,-75.22,388.06,357.28,1012.2,1012.2,27.09,27.04,35.47,372.4,343.16,29.24
AOML,213.146,1081994,3:30:14,11.56,-75.24,388.16,357.28,1012.09,1012.09,27.19,27.19,35.55,373.07,343.16,29.91
AOML,213.157,1081994,3:46:05,11.53,-75.3,391.11,357.28,1012,1012,27.59,27.54,36.16,374.85,343.16,31.69
AOML,213.16,1081994,3:50:24,11.53,-75.31,390.62,357.28,1011.96,1011.96,27.65,27.57,36.29,373.91,343.16,30.75
AOML,213.163,1081994,3:54:43,11.53,-75.33,389.62,357.28,1012,1012,27.69,27.62,36.29,373.01,343.16,29.85
AOML,213.167,1081994,4:00:29,11.52,-75.34,388.55,357.28,1011.93,1011.93,27.76,27.66,36.29,371.66,343.16,28.5
AOML,213.178,1081994,4:16:19,11.49,-75.4,387.23,357.24,1011.89,1011.89,27.85,27.78,36.25,370.63,342.49,28.14
AOML,213.181,1081994,4:20:38,11.49,-75.41,386.97,357.24,1011.82,1011.82,27.89,27.82,36.24,370.22,342.49,27.72
AOML,213.184,1081994,4:24:58,11.48,-75.43,387.1,357.24,1011.79,1011.79,27.92,27.85,36.24,370.33,342.49,27.83
AOML,213.187,1081994,4:29:17,11.47,-75.44,387.16,357.24,1011.81,1011.81,27.94,27.87,36.23,370.34,342.49,27.85
AOML,213.199,1081994,4:46:34,11.46,-75.5,387.78,357.24,1011.63,1011.63,28.22,28.15,36.16,370.81,342.49,28.31
AOML,213.202,1081994,4:50:53,11.45,-75.52,388.69,357.24,1011.53,1011.53,28.27,28.19,36.08,371.4,342.49,28.91
AOML,213.205,1081994,4:55:12,11.44,-75.53,389.63,357.24,1011.53,1011.53,28.28,28.21,36.03,372.35,342.49,29.86
AOML,213.208,1081994,4:59:31,11.44,-75.55,390.34,357.24,1011.64,1011.64,28.29,28.19,35.99,372.7,342.49,30.2
AOML,213.22,1081994,5:16:48,11.42,-75.61,390.15,357.35,1011.56,1011.56,28.42,28.35,35.95,372.79,342.11,30.68
AOML,213.223,1081994,5:21:07,11.41,-75.62,389.18,357.35,1011.5,1011.5,28.45,28.38,35.96,371.79,342.11,29.67
AOML,213.226,1081994,5:25:26,11.41,-75.64,388.75,357.35,1011.48,1011.48,28.48,28.43,35.88,371.65,342.11,29.53
AOML,213.229,1081994,5:29:46,11.4,-75.65,388.3,357.35,1011.49,1011.49,28.53,28.5,35.73,371.37,342.11,29.26
AOML,213.24,1081994,5:45:36,11.37,-75.7,386.97,357.35,1011.21,1011.21,28.68,28.64,35.34,369.9,342.11,27.79
AOML,213.244,1081994,5:51:22,11.37,-75.72,387.1,357.35,1011.1,1011.1,28.74,28.74,35.21,370.41,342.11,28.29
AOML,213.247,1081994,5:55:41,11.36,-75.74,387.65,357.35,1011.12,1011.12,28.85,28.82,35.01,370.45,342.11,28.34
AOML,213.25,1081994,6:00:00,11.36,-75.76,387.88,357.35,1011.11,1011.11,28.89,28.85,34.92,370.52,342.11,28.41
AOML,213.261,1081994,6:15:50,11.35,-75.81,387.5,357.57,1010.87,1010.87,28.91,28.9,34.68,370.34,341.8,28.55
AOML,213.264,1081994,6:20:10,11.34,-75.83,387.27,357.57,1010.86,1010.86,28.99,28.96,34.54,369.79,341.8,27.99
AOML,213.268,1081994,6:25:55,11.34,-75.84,387.56,357.57,1010.8,1010.8,29.03,28.96,34.5,369.56,341.8,27.76
AOML,213.271,1081994,6:30:14,11.33,-75.86,387.63,357.57,1010.71,1010.71,29.03,28.96,34.44,369.62,341.8,27.82
AOML,213.282,1081994,6:46:05,11.3,-75.92,386.27,357.57,1010.41,1010.41,29.01,28.95,34.42,368.31,341.8,26.51
AOML,213.285,1081994,6:50:24,11.3,-75.93,385.78,357.57,1010.33,1010.33,29.02,28.96,34.41,367.78,341.8,25.98
AOML,213.288,1081994,6:54:43,11.29,-75.94,385.59,357.57,1010.24,1010.24,29.03,28.96,34.4,367.53,341.8,25.73
AOML,213.292,1081994,7:00:29,11.29,-75.96,385.14,357.57,1010.18,1010.18,29.03,28.95,34.38,366.99,341.8,25.19
AOML,213.303,1081994,7:16:19,11.26,-76.02,383.52,358.89,1010.08,1010.08,28.99,28.89,34.34,365.06,342.86,22.2
AOML,213.306,1081994,7:20:38,11.26,-76.03,382.84,358.89,1010.01,1010.01,28.96,28.9,34.33,364.92,342.86,22.07
AOML,213.309,1081994,7:24:58,11.25,-76.04,382.65,358.89,1009.93,1009.93,28.98,28.91,34.33,364.62,342.86,21.76
AOML,213.312,1081994,7:29:17,11.24,-76.06,382.58,358.89,1009.87,1009.87,28.98,28.9,34.32,364.41,342.86,21.56
AOML,213.324,1081994,7:46:34,11.22,-76.11,383.52,358.89,1009.78,1009.78,28.96,28.93,34.54,365.88,342.86,23.02
AOML,213.327,1081994,7:50:53,11.21,-76.13,384,358.89,1009.74,1009.74,29,28.91,34.62,365.57,342.86,22.71
AOML,213.33,1081994,7:55:12,11.21,-76.14,384.68,358.89,1009.74,1009.74,28.96,28.85,34.78,365.94,342.86,23.09
AOML,213.333,1081994,7:59:31,11.2,-76.16,384.87,358.89,1009.72,1009.72,28.91,28.81,34.89,366.19,342.86,23.33
AOML,213.345,1081994,8:16:48,11.17,-76.22,383.79,357.7,1009.64,1009.64,28.55,28.32,35.55,363.88,342.07,21.81
AOML,213.348,1081994,8:21:07,11.17,-76.23,382.05,357.7,1009.66,1009.66,28.39,28.25,35.54,363.48,342.07,21.41
AOML,213.351,1081994,8:25:26,11.16,-76.24,380.13,357.7,1009.64,1009.64,28.34,28.23,35.51,361.99,342.07,19.92
AOML,213.354,1081994,8:29:46,11.16,-76.26,378.71,357.7,1009.49,1009.49,28.32,28.21,35.49,360.71,342.07,18.64
AOML,213.365,1081994,8:45:36,11.13,-76.32,377.88,357.7,1009.46,1009.46,28.34,28.25,35.28,360.1,342.07,18.03
AOML,213.369,1081994,8:51:22,11.13,-76.33,378.14,357.7,1009.42,1009.42,28.36,28.26,35.24,360.27,342.07,18.2
AOML,213.372,1081994,8:55:41,11.11,-76.34,378.39,357.7,1009.54,1009.54,28.36,28.27,35.23,360.66,342.07,18.59
AOML,213.375,1081994,9:00:00,11.1,-76.36,378.71,357.7,1009.45,1009.45,28.38,28.3,35.21,361.08,342.07,19
AOML,213.386,1081994,9:15:50,11.08,-76.41,379.87,357.73,1009.44,1009.44,28.4,28.3,35.18,361.84,342.14,19.71
AOML,213.389,1081994,9:20:10,11.07,-76.43,379.45,357.73,1009.48,1009.48,28.38,28.27,35.16,361.45,342.14,19.31
AOML,213.393,1081994,9:25:55,11.07,-76.44,379.07,357.73,1009.55,1009.55,28.38,28.29,35.13,361.33,342.14,19.19
AOML,213.396,1081994,9:30:14,11.06,-76.45,379.1,357.73,1009.66,1009.66,28.41,28.31,35.13,361.18,342.14,19.04
AOML,213.407,1081994,9:46:05,11.04,-76.51,379.93,357.73,1009.8,1009.8,28.44,28.35,35.17,362.21,342.14,20.07
AOML,213.41,1081994,9:50:24,11.03,-76.52,380.13,357.73,1009.71,1009.71,28.45,28.37,35.17,362.37,342.14,20.23
AOML,213.413,1081994,9:54:43,11.02,-76.54,380.48,357.73,1009.81,1009.81,28.47,28.36,35.19,362.44,342.14,20.31
AOML,213.417,1081994,10:00:29,11.02,-76.55,380.54,357.73,1009.82,1009.82,28.45,28.35,35.2,362.56,342.14,20.42
AOML,213.428,1081994,10:16:19,10.99,-76.6,380.66,357.57,1009.89,1009.89,28.44,28.33,35.22,362.62,342.13,20.49
AOML,213.431,1081994,10:20:38,10.99,-76.62,380.21,357.57,1009.88,1009.88,28.41,28.3,35.23,362.2,342.13,20.08
AOML,213.434,1081994,10:24:58,10.98,-76.63,379.92,357.57,1009.79,1009.79,28.39,28.29,35.23,361.99,342.13,19.86
AOML,213.437,1081994,10:29:17,10.97,-76.66,379.43,357.57,1009.88,1009.88,28.39,28.3,35.24,361.72,342.13,19.59
AOML,213.449,1081994,10:46:34,10.95,-76.71,379.53,357.57,1010.1,1010.1,28.38,28.26,35.32,361.6,342.13,19.47
AOML,213.452,1081994,10:50:53,10.94,-76.72,379.24,357.57,1010.08,1010.08,28.36,28.24,35.36,361.33,342.13,19.2
AOML,213.455,1081994,10:55:12,10.94,-76.73,379.15,357.57,1010.14,1010.14,28.36,28.25,35.37,361.32,342.13,19.19
AOML,213.458,1081994,10:59:31,10.93,-76.76,379.15,357.57,1009.95,1009.95,28.34,28.24,35.41,361.35,342.13,19.23
AOML,213.47,1081994,11:16:48,10.91,-76.8,379.53,357.61,1010.02,1010.02,28.39,28.29,35.51,361.72,342.38,19.34
AOML,213.473,1081994,11:21:07,10.9,-76.82,379.36,357.61,1010.16,1010.16,28.38,28.24,35.52,361.18,342.38,18.8
AOML,213.476,1081994,11:25:26,10.89,-76.84,378.4,357.61,1010.2,1010.2,28.32,28.18,35.5,360.29,342.38,17.91
AOML,213.479,1081994,11:29:46,10.88,-76.86,377.7,357.61,1010.08,1010.08,28.27,28.15,35.47,359.92,342.38,17.54
AOML,213.49,1081994,11:45:36,10.86,-76.9,377.28,357.61,1010.27,1010.27,28.26,28.13,35.49,359.54,342.38,17.16
AOML,213.494,1081994,11:51:22,10.85,-76.93,377.25,357.61,1010.47,1010.47,28.25,28.13,35.5,359.67,342.38,17.29
AOML,213.497,1081994,11:55:41,10.83,-76.94,377.22,357.61,1010.46,1010.46,28.25,28.15,35.5,359.76,342.38,17.38
AOML,213.5,1081994,12:00:00,10.83,-76.95,377.31,357.61,1010.51,1010.51,28.26,28.14,35.51,359.7,342.38,17.32
AOML,213.511,1081994,12:15:50,10.8,-77.01,376.81,357.71,1010.82,1010.82,28.27,28.15,35.48,359.29,342.66,16.63
AOML,213.514,1081994,12:20:10,10.81,-77.03,376.33,357.71,1010.81,1010.81,28.25,28.14,35.49,358.94,342.66,16.28
AOML,213.518,1081994,12:25:55,10.8,-77.04,375.89,357.71,1010.84,1010.84,28.25,28.14,35.49,358.57,342.66,15.91
AOML,213.521,1081994,12:30:14,10.79,-77.05,375.89,357.71,1010.96,1010.96,28.26,28.14,35.52,358.51,342.66,15.85
AOML,213.532,1081994,12:46:05,10.78,-77.09,375.76,357.71,1011,1011,28.3,28.21,35.59,358.7,342.66,16.04
AOML,213.535,1081994,12:50:24,10.77,-77.1,375.6,357.71,1010.99,1010.99,28.33,28.21,35.61,358.13,342.66,15.47
AOML,213.538,1081994,12:54:43,10.77,-77.12,375.57,357.71,1011.02,1011.02,28.31,28.19,35.63,358.1,342.66,15.44
AOML,213.542,1081994,13:00:29,10.77,-77.13,375.38,357.71,1010.93,1010.93,28.31,28.19,35.64,357.92,342.66,15.26
AOML,213.553,1081994,13:16:19,10.75,-77.18,377.03,358.08,1011.15,1011.15,28.23,28.03,35.33,358.55,343.2,15.34
AOML,213.556,1081994,13:20:38,10.74,-77.19,377,358.08,1011.09,1011.09,28.23,28.03,35.34,358.58,343.2,15.37
AOML,213.559,1081994,13:24:58,10.74,-77.21,377.25,358.08,1011.09,1011.09,28.23,28.03,35.36,358.68,343.2,15.48
AOML,213.562,1081994,13:29:17,10.74,-77.22,377.44,358.08,1011.06,1011.06,28.22,28,35.37,358.79,343.2,15.59
AOML,213.574,1081994,13:46:34,10.72,-77.26,378.25,358.08,1011.4,1011.4,28.2,28.03,35.45,360.26,343.2,17.06
AOML,213.577,1081994,13:50:53,10.71,-77.27,379.34,358.08,1011.46,1011.46,28.2,28.05,35.47,361.57,343.2,18.36
AOML,213.58,1081994,13:55:12,10.7,-77.29,379.69,358.08,1011.58,1011.58,28.23,28.06,35.51,361.61,343.2,18.41
AOML,213.583,1081994,13:59:31,10.71,-77.3,379.88,358.08,1011.45,1011.45,28.18,28.06,35.54,362.43,343.2,19.23
AOML,213.595,1081994,14:16:48,10.68,-77.34,380.56,358.47,1011.52,1011.52,28.19,28.07,35.62,363.21,343.74,19.47
AOML,213.598,1081994,14:21:07,10.67,-77.36,380.47,358.47,1011.48,1011.48,28.17,28.08,35.69,363.49,343.74,19.75
AOML,213.601,1081994,14:25:26,10.68,-77.37,380.34,358.47,1011.57,1011.57,28.16,28.08,35.74,363.58,343.74,19.84
AOML,213.604,1081994,14:29:46,10.67,-77.38,380.21,358.47,1011.52,1011.52,28.14,28.07,35.79,363.49,343.74,19.75
AOML,213.615,1081994,14:45:36,10.64,-77.42,380.53,358.47,1011.74,1011.74,28.17,28,35.92,362.56,343.74,18.82
AOML,213.619,1081994,14:51:22,10.64,-77.44,380.37,358.47,1011.75,1011.75,28.17,27.99,35.93,362.23,343.74,18.49
AOML,213.622,1081994,14:55:41,10.63,-77.45,380.31,358.47,1011.76,1011.76,28.16,27.99,35.94,362.39,343.74,18.65
AOML,213.625,1081994,15:00:00,10.62,-77.46,380.08,358.47,1011.71,1011.71,28.14,27.99,35.94,362.46,343.74,18.72
AOML,213.636,1081994,15:15:50,10.6,-77.51,380.75,358.13,1011.76,1011.76,28.19,28.01,35.94,362.73,343.54,19.2
AOML,213.639,1081994,15:20:10,10.6,-77.52,380.65,358.13,1011.77,1011.77,28.2,28.01,35.92,362.46,343.54,18.92
AOML,213.643,1081994,15:25:55,10.59,-77.53,380.65,358.13,1011.85,1011.85,28.2,28.01,35.9,362.49,343.54,18.95
AOML,213.646,1081994,15:30:14,10.58,-77.54,380.59,358.13,1011.83,1011.83,28.2,28,35.88,362.19,343.54,18.65
AOML,213.657,1081994,15:46:05,10.57,-77.59,380.62,358.13,1012.01,1012.01,28.23,28.02,35.82,362.18,343.54,18.64
AOML,213.66,1081994,15:50:24,10.57,-77.6,381.04,358.13,1012.03,1012.03,28.23,28.03,35.82,362.66,343.54,19.13
AOML,213.663,1081994,15:54:43,10.56,-77.61,381.17,358.13,1011.99,1011.99,28.23,28.04,35.8,362.88,343.54,19.34
AOML,213.667,1081994,16:00:29,10.55,-77.62,381.36,358.13,1011.92,1011.92,28.22,28.06,35.78,363.54,343.54,20.01
AOML,213.678,1081994,16:16:19,10.53,-77.67,381.57,358.03,1011.93,1011.93,28.16,28,35.68,363.79,343.4,20.39
AOML,213.681,1081994,16:20:38,10.54,-77.68,381.06,358.03,1012.07,1012.07,28.16,28,35.65,363.34,343.4,19.94
AOML,213.684,1081994,16:24:58,10.53,-77.69,380.93,358.03,1012.09,1012.09,28.17,28.03,35.61,363.49,343.4,20.09
AOML,213.687,1081994,16:29:17,10.52,-77.7,380.93,358.03,1012.04,1012.04,28.17,28.04,35.55,363.55,343.4,20.14
AOML,213.699,1081994,16:46:34,10.51,-77.76,381.28,358.03,1012.01,1012.01,28.19,28.02,35.38,363.37,343.4,19.97
AOML,213.702,1081994,16:50:53,10.5,-77.77,381.32,358.03,1012,1012,28.19,28.02,35.35,363.41,343.4,20.01
AOML,213.705,1081994,16:55:12,10.49,-77.78,381.32,358.03,1011.87,1011.87,28.19,28.04,35.28,363.62,343.4,20.22
AOML,213.708,1081994,16:59:31,10.49,-77.78,381.09,358.03,1011.87,1011.87,28.17,28.05,35.25,363.83,343.4,20.43
AOML,213.72,1081994,17:16:48,10.48,-77.84,381.29,357.79,1011.61,1011.61,28.22,28.06,35.15,363.41,342.91,20.5
AOML,213.723,1081994,17:21:07,10.47,-77.85,381.16,357.79,1011.62,1011.62,28.22,28.07,35.11,363.34,342.91,20.43
AOML,213.726,1081994,17:25:26,10.46,-77.87,381.1,357.79,1011.58,1011.58,28.22,28.1,35.09,363.72,342.91,20.81
AOML,213.729,1081994,17:29:46,10.45,-77.88,381.36,357.79,1011.57,1011.57,28.24,28.13,35.1,364.02,342.91,21.11
AOML,213.74,1081994,17:45:36,10.44,-77.94,379.07,357.79,1011.22,1011.22,28.17,28.1,35.16,362.23,342.91,19.31
AOML,213.744,1081994,17:51:22,10.43,-77.95,378.33,357.79,1011.16,1011.16,28.2,28.15,35.14,361.69,342.91,18.78
AOML,213.747,1081994,17:55:41,10.43,-77.96,378.59,357.79,1011.19,1011.19,28.23,28.14,35.14,361.42,342.91,18.51
AOML,213.75,1081994,18:00:00,10.42,-77.97,378.71,357.79,1011.01,1011.01,28.23,28.1,35.16,360.99,342.91,18.08
AOML,213.761,1081994,18:15:50,10.4,-78.02,379.08,357.71,1010.81,1010.81,28.22,28.06,35,360.92,342.62,18.3
AOML,213.764,1081994,18:20:10,10.4,-78.03,378.85,357.71,1010.74,1010.74,28.22,28.04,35.01,360.47,342.62,17.85
AOML,213.768,1081994,18:25:55,10.4,-78.04,378.69,357.71,1010.72,1010.72,28.25,28.02,35.01,359.76,342.62,17.15
AOML,213.771,1081994,18:30:14,10.38,-78.05,378.95,357.71,1010.69,1010.69,28.25,28.02,34.98,359.85,342.62,17.24
AOML,213.782,1081994,18:46:05,10.37,-78.11,379.53,357.71,1010.5,1010.5,28.25,28.09,34.87,361.2,342.62,18.59
AOML,213.785,1081994,18:50:24,10.37,-78.12,379.72,357.71,1010.41,1010.41,28.28,28.1,34.88,361.17,342.62,18.56
AOML,213.788,1081994,18:54:43,10.36,-78.13,380.5,357.71,1010.34,1010.34,28.31,28.07,34.92,360.95,342.62,18.33
AOML,213.792,1081994,19:00:29,10.36,-78.14,381.43,357.71,1010.32,1010.32,28.33,28.11,34.92,362.24,342.62,19.62
AOML,213.803,1081994,19:16:19,10.34,-78.19,383.63,357.9,1010.01,1010.01,28.32,28.09,34.99,363.96,342.45,21.51
AOML,213.806,1081994,19:20:38,10.33,-78.2,384.05,357.9,1010.1,1010.1,28.33,28.07,34.98,364.09,342.45,21.64
AOML,213.809,1081994,19:24:58,10.32,-78.21,384.27,357.9,1010,1010,28.34,28.1,34.97,364.43,342.45,21.97
AOML,213.812,1081994,19:29:17,10.32,-78.22,383.85,357.9,1009.85,1009.85,28.3,28.1,34.95,364.64,342.45,22.19
AOML,213.824,1081994,19:46:34,10.31,-78.28,381.39,357.9,1009.91,1009.91,28.28,28.14,34.81,362.99,342.45,20.53
AOML,213.827,1081994,19:50:53,10.3,-78.29,381.52,357.9,1009.86,1009.86,28.25,28.1,34.78,363.06,342.45,20.61
AOML,213.83,1081994,19:55:12,10.29,-78.3,381.33,357.9,1009.83,1009.83,28.22,28.11,34.75,363.47,342.45,21.02
AOML,213.833,1081994,19:59:31,10.29,-78.31,381.13,357.9,1009.84,1009.84,28.22,28.11,34.73,363.26,342.45,20.8
AOML,213.845,1081994,20:16:48,10.27,-78.36,381.93,357.7,1009.93,1009.93,28.31,28.06,34.67,362.22,342.25,19.97
AOML,213.848,1081994,20:21:07,10.26,-78.37,382.32,357.7,1009.92,1009.92,28.27,28.08,34.67,363.35,342.25,21.1
AOML,213.851,1081994,20:25:26,10.25,-78.38,382.45,357.7,1009.7,1009.7,28.28,28.06,34.68,362.95,342.25,20.7
AOML,213.854,1081994,20:29:46,10.25,-78.39,383.06,357.7,1009.72,1009.72,28.33,28.06,34.61,362.83,342.25,20.58
AOML,213.865,1081994,20:45:36,10.23,-78.44,383.94,357.7,1009.54,1009.54,28.28,28.08,34.58,364.6,342.25,22.35
AOML,213.869,1081994,20:51:22,10.23,-78.46,383.19,357.7,1009.41,1009.41,28.3,28.09,34.57,363.65,342.25,21.4
AOML,213.872,1081994,20:55:41,10.23,-78.47,383.13,357.7,1009.32,1009.32,28.3,28.09,34.5,363.57,342.25,21.32
AOML,213.875,1081994,21:00:00,10.22,-78.48,382.55,357.7,1009.26,1009.26,28.31,28.08,34.48,362.75,342.25,20.5
AOML,213.886,1081994,21:15:50,10.2,-78.52,383.1,357.65,1008.88,1008.88,28.31,28.11,34.5,363.47,341.93,21.53
AOML,213.889,1081994,21:20:10,10.19,-78.54,381.8,357.65,1008.82,1008.82,28.33,28.1,34.51,361.91,341.93,19.98
AOML,213.893,1081994,21:25:55,10.19,-78.55,381.38,357.65,1008.86,1008.86,28.33,28.09,34.5,361.3,341.93,19.36
AOML,213.896,1081994,21:30:14,10.18,-78.57,381.03,357.65,1008.89,1008.89,28.31,28.08,34.46,361.14,341.93,19.21
AOML,213.907,1081994,21:46:05,10.16,-78.61,378.83,357.65,1008.73,1008.73,28.28,28.01,34.46,358.51,341.93,16.58
AOML,213.91,1081994,21:50:24,10.16,-78.62,378.67,357.65,1008.87,1008.87,28.3,27.96,34.43,357.59,341.93,15.66
AOML,213.913,1081994,21:54:43,10.16,-78.64,378.8,357.65,1008.93,1008.93,28.27,27.99,34.45,358.45,341.93,16.52
AOML,213.917,1081994,22:00:29,10.15,-78.65,378.54,357.65,1008.92,1008.92,28.27,27.99,34.45,358.21,341.93,16.28
AOML,213.928,1081994,22:16:19,10.13,-78.7,378.85,357.56,1008.91,1008.91,28.28,27.92,34.55,357.43,341.97,15.46
AOML,213.931,1081994,22:20:38,10.12,-78.71,378.53,357.56,1008.9,1008.9,28.29,27.99,34.53,357.99,341.97,16.03
AOML,213.934,1081994,22:24:58,10.13,-78.72,378.72,357.56,1009.06,1009.06,28.28,28.03,34.49,358.82,341.97,16.85
AOML,213.937,1081994,22:29:17,10.12,-78.74,379.11,357.56,1008.99,1008.99,28.28,28.08,34.4,359.73,341.97,17.77
AOML,213.949,1081994,22:46:34,10.1,-78.78,378.95,357.56,1009.15,1009.15,28.31,27.94,34.52,357.51,341.97,15.54
AOML,213.952,1081994,22:50:53,10.09,-78.79,378.4,357.56,1009.16,1009.16,28.28,27.83,34.79,356,341.97,14.04
AOML,213.955,1081994,22:55:12,10.08,-78.8,378.14,357.56,1009.27,1009.27,28.28,27.76,35.08,354.91,341.97,12.94
AOML,213.958,1081994,22:59:31,10.09,-78.82,377.76,357.56,1009.27,1009.27,28.27,27.77,35.12,354.88,341.97,12.91
AOML,213.97,1081994,23:16:48,10.07,-78.86,377.12,357.55,1009.35,1009.35,28.22,27.95,34.77,357.13,342.04,15.09
AOML,213.973,1081994,23:21:07,10.08,-78.86,379.44,357.55,1009.34,1009.34,28.19,27.81,35.05,358.03,342.04,15.99
AOML,213.976,1081994,23:25:26,10.08,-78.85,376.38,357.55,1009.22,1009.22,28.17,27.88,35.11,356.23,342.04,14.19
AOML,213.979,1081994,23:29:46,10.07,-78.85,375.13,357.55,1009.32,1009.32,28.15,28.06,34.79,357.62,342.04,15.58
AOML,213.99,1081994,23:45:36,10.05,-78.9,372.59,357.55,1009.7,1009.7,28.11,28.11,34.24,356.55,342.04,14.51
AOML,213.994,1081994,23:51:22,10.04,-78.91,372.98,357.55,1009.7,1009.7,28.17,28.1,34.24,355.95,342.04,13.91
AOML,213.997,1081994,23:55:41,10.04,-78.92,373.62,357.55,1009.77,1009.77,28.2,28.1,34.22,356.16,342.04,14.12
AOML,214,2081994,0:00:00,10.03,-78.94,374.52,357.55,1009.79,1009.79,28.22,28.11,34.16,356.92,342.04,14.88
AOML,214.011,2081994,0:15:50,10.01,-78.98,375.26,357.62,1009.79,1009.79,28.06,28.21,34.06,361.05,342.26,18.79
AOML,214.014,2081994,0:20:10,10.01,-78.99,375.78,357.62,1009.9,1009.9,27.91,28.24,33.99,364.02,342.26,21.76
AOML,214.018,2081994,0:25:55,10,-79.01,375.94,357.62,1009.97,1009.97,27.92,28.26,33.96,364.22,342.26,21.97
AOML,214.021,2081994,0:30:14,9.99,-79.02,374.56,357.62,1010.11,1010.11,27.97,28.22,33.95,361.88,342.26,19.62
AOML,214.032,2081994,0:46:05,9.97,-79.06,373.88,357.62,1010.02,1010.02,28.06,28.14,33.88,358.84,342.26,16.59
AOML,214.035,2081994,0:50:24,9.98,-79.08,376.1,357.62,1010.04,1010.04,27.99,28.08,33.87,361.29,342.26,19.03
AOML,214.038,2081994,0:54:43,9.97,-79.09,374.91,357.62,1010,1010,28.11,27.99,33.87,357.34,342.26,15.08
AOML,214.042,2081994,1:00:29,9.96,-79.1,373.53,357.62,1010.02,1010.02,28.24,27.94,33.99,353.6,342.26,11.34
AOML,214.053,2081994,1:16:19,9.95,-79.13,373.34,357.61,1009.92,1009.92,28.25,27.84,34.14,351.96,342.63,9.33
AOML,214.056,2081994,1:20:38,9.94,-79.15,373.28,357.61,1009.96,1009.96,28.23,27.79,34.16,351.55,342.63,8.92
AOML,214.059,2081994,1:24:58,9.94,-79.16,373.5,357.61,1010,1010,28.25,27.75,34.28,351.12,342.63,8.49
AOML,214.062,2081994,1:29:17,9.93,-79.17,374.01,357.61,1010.12,1010.12,28.27,27.76,34.34,351.46,342.63,8.83
AOML,214.074,2081994,1:46:34,9.92,-79.22,376.06,357.61,1010.43,1010.43,28.37,27.75,34.2,352.11,342.63,9.48
AOML,214.077,2081994,1:50:53,9.91,-79.23,376.13,357.61,1010.53,1010.53,28.38,27.76,34.21,352.2,342.63,9.56
AOML,214.08,2081994,1:55:12,9.9,-79.24,376.16,357.61,1010.56,1010.56,28.38,27.77,34.22,352.37,342.63,9.74
AOML,214.083,2081994,1:59:31,9.9,-79.25,375.68,357.61,1010.63,1010.63,28.34,27.76,34.18,352.17,342.63,9.54
AOML,214.095,2081994,2:16:48,9.89,-79.29,375.15,357.56,1011.05,1011.05,28.27,27.75,34.17,352.71,342.91,9.8
AOML,214.098,2081994,2:21:07,9.88,-79.31,373.84,357.56,1011.02,1011.02,28.19,27.77,34.15,352.79,342.91,9.88
AOML,214.101,2081994,2:25:26,9.87,-79.31,373.23,357.56,1010.84,1010.84,28.1,27.78,34.07,353.5,342.91,10.58
AOML,214.104,2081994,2:29:46,9.87,-79.32,372.91,357.56,1010.92,1010.92,28.08,27.77,34.04,353.29,342.91,10.38
AOML,214.115,2081994,2:45:36,9.86,-79.37,371.51,357.56,1011.42,1011.42,27.97,27.76,34.03,353.46,342.91,10.55
AOML,214.119,2081994,2:51:22,9.86,-79.37,371.16,357.56,1011.54,1011.54,27.91,27.77,34.04,354.1,342.91,11.19
AOML,214.122,2081994,2:55:41,9.85,-79.39,370.93,357.56,1011.69,1011.69,27.9,27.78,34.04,354.3,342.91,11.39
AOML,214.125,2081994,3:00:00,9.86,-79.4,370.58,357.56,1011.69,1011.69,27.91,27.8,34.02,354.02,342.91,11.11
AOML,214.136,2081994,3:15:50,9.85,-79.42,370.87,357.86,1011.78,1011.78,27.92,27.8,33.88,354.17,343.52,10.65
AOML,214.139,2081994,3:20:10,9.85,-79.42,370.8,357.86,1012,1012,27.92,27.79,33.86,353.98,343.52,10.46